User: anonymous   Login
Location: State Camp
(41.2367°N, 77.7828°W)
Time: 02:50:48
(UTC-04:00)
Language:

ADEOS Rocket - Orbit

View from above orbital plane
View from above orbital plane
View from above satellite
View from above satellite

Ground track
Ground track

The orbit data is extracted from the following two-line orbital elements,

1 24279U 96046C   15245.09573083 -.00000005  00000-0  36336-4 0  9992
2 24279  98.6955 261.5360 0300630 157.4735 274.3234 13.47032111936180
Epoch (UTC): 02 September 2015 02:17:51
Eccentricity: 0.0300630
inclination: 98.6955°
perigee height: 859 km
apogee height: 1307 km
right ascension of ascending node: 261.5360°
argument of perigee: 157.4735°
revolutions per day: 13.47032111
mean anomaly at epoch: 274.3234°
orbit number at epoch: 93618

The dashed part of the orbit path shows where the satellite is in the earth's shadow,  

DLR